Limon, CO

2:23 AM MDT on September 22, 2017 (GMT -0600)
Limon Municipal

Weather History for KLIC - September, 2013

Change the Weather History Date:

Thursday, September 12, 2013

  Actual Average Record
Temperature  
Mean Temperature 64 °F -  
Max Temperature 70 °F - 93 °F (2004)
Min Temperature 57 °F - 32 °F (2014)
Degree Days  
Heating Degree Days 1    
Month to date heating degree days 4  
Cooling Degree Days 0    
Month to date cooling degree days 55  
Growing Degree Days 12 (Base 50)    
Moisture  
Dew Point 60 °F    
Average Humidity 88    
Maximum Humidity 100    
Minimum Humidity 76    
Precipitation  
Precipitation 1.96 in - 1.96 in (2013)
Month to date precipitation 2.12  
Year to date precipitation 14.27  
Sea Level Pressure  
Sea Level Pressure 30.22 in    
Wind  
Wind Speed 10 mph (East)    
Max Wind Speed 22 mph    
Max Gust Speed 29 mph    
Visibility 8 miles    
Events Rain    
T = Trace of Precipitation, MM = Missing Value Source: NWS Daily Summary

Daily Weather History Graph

Daily Weather History Graph

Search for Another Location

Airport or City:

Trip Planner

Search our weather history database for the weather conditions in past years. The results will help you decide how hot, cold, wet, or windy it might be!

Date:

Astronomy

Sep. 12, 2013 Rise Set
Actual Time 6:33 AM MDT 7:07 PM MDT
Civil Twilight 6:06 AM MDT 7:34 PM MDT
Nautical Twilight 5:34 AM MDT 8:06 PM MDT
Astronomical Twilight 5:02 AM MDT 8:38 PM MDT
Moon 2:00 PM MDT (9/12) No Moon Set
Length of Visible Light 13h 27m
Length of Day
12h 33m
Waxing Crescent, 51% of the Moon is Illuminated
Sep 12
Waxing Crescent
Sep 19
Full
Sep 26
Last Quarter
Oct 4
New
Oct 11
First Quarter

Hourly Weather History & Observations

Time (MDT) Temp. Dew Point Humidity Pressure Visibility Wind Dir Wind Speed Gust Speed Precip Events Conditions
12:21 AM 60.8 °F 60.8 °F 100% 30.27 in 10.0 mi ESE 9.2 mph - N/A   Mostly Cloudy
12:55 AM 61.0 °F 60.1 °F 97% 30.10 in 10.0 mi East 5.8 mph - N/A   Overcast
1:18 AM 60.8 °F 60.8 °F 100% 30.27 in 10.0 mi East 5.8 mph - N/A   Overcast
1:34 AM 60.8 °F 60.8 °F 100% 30.27 in 10.0 mi East 5.8 mph - N/A   Overcast
1:55 AM 61.0 °F 61.0 °F 100% 30.10 in 10.0 mi ESE 6.9 mph - N/A   Overcast
2:17 AM 60.8 °F 60.8 °F 100% 30.28 in 10.0 mi ESE 6.9 mph - N/A   Mostly Cloudy
2:55 AM 59.0 °F 59.0 °F 100% 30.09 in 9.0 mi East 4.6 mph - N/A   Scattered Clouds
3:20 AM 59.0 °F 59.0 °F 100% 30.27 in 10.0 mi ENE 5.8 mph - N/A   Mostly Cloudy
3:29 AM 60.8 °F 59.0 °F 94% 30.27 in 10.0 mi East 4.6 mph - N/A   Mostly Cloudy
3:41 AM 60.8 °F 60.8 °F 100% 30.27 in 10.0 mi East 5.8 mph - N/A   Overcast
3:55 AM 61.0 °F 60.1 °F 97% 30.08 in 10.0 mi ENE 5.8 mph - N/A   Overcast
4:06 AM 60.8 °F 60.8 °F 100% 30.27 in 10.0 mi ENE 5.8 mph - 0.00 in Rain Light Rain
4:21 AM 60.8 °F 60.8 °F 100% 30.27 in 10.0 mi East 4.6 mph - 0.01 in Rain Light Rain
4:55 AM 60.1 °F 59.0 °F 96% 30.09 in 10.0 mi East 6.9 mph - 0.01 in   Overcast
5:19 AM 60.8 °F 60.8 °F 100% 30.28 in 10.0 mi East 3.5 mph - 0.00 in Rain Light Rain
5:55 AM 61.0 °F 60.1 °F 97% 30.10 in 10.0 mi East 5.8 mph - 0.02 in Rain Light Rain
6:13 AM 60.8 °F 60.8 °F 100% 30.28 in 10.0 mi East 8.1 mph - 0.00 in   Overcast
6:34 AM 60.8 °F 60.8 °F 100% 30.28 in 9.0 mi ENE 8.1 mph - 0.00 in   Unknown
6:55 AM 61.0 °F 60.1 °F 97% 30.12 in 10.0 mi East 6.9 mph - 0.01 in Rain Light Rain
7:04 AM 60.8 °F 60.8 °F 100% 30.29 in 10.0 mi East 6.9 mph - 0.01 in Rain Light Rain
7:48 AM 60.8 °F 60.8 °F 100% 30.30 in 5.0 mi ESE 9.2 mph - 0.06 in Rain Light Rain
7:55 AM 61.0 °F 61.0 °F 100% 30.13 in 7.0 mi ESE 12.7 mph - 0.06 in Rain Light Rain
8:03 AM 60.8 °F 60.8 °F 100% 30.30 in 10.0 mi ESE 12.7 mph - 0.00 in   Overcast
8:28 AM 62.6 °F 60.8 °F 94% 30.30 in 10.0 mi ESE 10.4 mph - 0.00 in   Overcast
8:55 AM 64.0 °F 62.1 °F 93% 30.13 in 10.0 mi ESE 12.7 mph - 0.00 in   Overcast
9:41 AM 64.4 °F 60.8 °F 88% 30.31 in 10.0 mi ESE 11.5 mph - N/A   Overcast
9:55 AM 66.9 °F 60.1 °F 79% 30.13 in 10.0 mi ESE 11.5 mph - N/A   Mostly Cloudy
10:34 AM 66.2 °F 60.8 °F 83% 30.31 in 10.0 mi ESE 12.7 mph - N/A   Overcast
10:42 AM 64.4 °F 60.8 °F 88% 30.31 in 10.0 mi ESE 11.5 mph - 0.00 in Rain Light Rain
10:55 AM 66.0 °F 60.1 °F 81% 30.13 in 10.0 mi ESE 16.1 mph - 0.00 in   Overcast
11:55 AM 68.0 °F 60.1 °F 76% 30.12 in 10.0 mi East 18.4 mph - 0.00 in   Overcast
12:15 PM 66.2 °F 60.8 °F 83% 30.30 in 9.0 mi East 19.6 mph - N/A   Overcast
12:25 PM 68.0 °F 60.8 °F 78% 30.30 in 10.0 mi East 19.6 mph - N/A   Overcast
12:40 PM 62.6 °F 60.8 °F 94% 30.30 in 2.5 mi ESE 18.4 mph - 0.01 in Rain Light Rain
12:42 PM 62.6 °F 60.8 °F 94% 30.29 in 4.0 mi East 13.8 mph - 0.01 in Rain Light Rain
12:55 PM 62.1 °F 61.0 °F 96% 30.13 in 8.0 mi East 15.0 mph - 0.01 in Rain Light Rain
1:31 PM 62.6 °F 60.8 °F 94% 30.29 in 5.0 mi East 13.8 mph - 0.04 in Rain Light Rain
1:42 PM 62.6 °F 60.8 °F 94% 30.28 in 7.0 mi East 18.4 mph 26.5 mph 0.04 in Rain Light Rain
1:46 PM 62.6 °F 60.8 °F 94% 30.28 in 9.0 mi East 17.3 mph 26.5 mph 0.04 in Rain Light Rain
1:55 PM 62.1 °F 61.0 °F 96% 30.11 in 2.0 mi East 20.7 mph 24.2 mph 0.04 in Rain Light Rain
1:57 PM 62.6 °F 60.8 °F 94% 30.28 in 1.8 mi East 18.4 mph 24.2 mph 0.01 in Rain Light Rain
2:00 PM 62.6 °F 60.8 °F 94% 30.28 in 2.0 mi East 17.3 mph 24.2 mph 0.01 in Rain Light Rain
2:09 PM 62.6 °F 60.8 °F 94% 30.27 in 8.0 mi East 17.3 mph - 0.02 in Rain Light Rain
2:17 PM 62.6 °F 60.8 °F 94% 30.27 in 10.0 mi East 17.3 mph 25.3 mph 0.03 in Rain Light Rain
2:20 PM 62.6 °F 60.8 °F 94% 30.27 in 10.0 mi East 18.4 mph 25.3 mph 0.03 in Rain Light Rain
2:55 PM 62.1 °F 61.0 °F 96% 30.11 in 10.0 mi East 17.3 mph - 0.03 in   Overcast
3:03 PM 62.6 °F 60.8 °F 94% 30.27 in 9.0 mi East 18.4 mph 26.5 mph N/A   Overcast
3:11 PM 62.6 °F 60.8 °F 94% 30.27 in 10.0 mi East 17.3 mph - N/A   Overcast
3:55 PM 61.0 °F 60.1 °F 97% 30.10 in 10.0 mi East 17.3 mph 25.3 mph 0.01 in Rain Light Rain
4:55 PM 60.1 °F 59.0 °F 96% 30.09 in 10.0 mi East 15.0 mph 27.6 mph 0.00 in Rain Light Rain
5:55 PM 59.0 °F 57.9 °F 96% 30.11 in 10.0 mi East 11.5 mph - 0.01 in Rain Light Rain
6:04 PM 59.0 °F 57.2 °F 94% 30.26 in 10.0 mi ESE 11.5 mph 20.7 mph 0.01 in Rain Light Rain
6:30 PM 57.2 °F 57.2 °F 100% 30.27 in 10.0 mi East 16.1 mph - 0.01 in Rain Light Rain
6:45 PM 57.2 °F 57.2 °F 100% 30.27 in 10.0 mi East 16.1 mph 21.9 mph 0.01 in Rain Light Rain
6:53 PM 57.2 °F 57.2 °F 100% 30.27 in 10.0 mi ESE 13.8 mph 21.9 mph 0.02 in Rain Light Rain
6:55 PM 57.9 °F 57.0 °F 97% 30.12 in 10.0 mi ESE 13.8 mph - 0.02 in Rain Light Rain
7:05 PM 57.2 °F 57.2 °F 100% 30.27 in 10.0 mi ESE 12.7 mph 19.6 mph 0.00 in Rain Light Rain
7:32 PM 57.2 °F 55.4 °F 94% 30.26 in 10.0 mi East 10.4 mph 17.3 mph 0.00 in   Overcast
7:41 PM 57.2 °F 57.2 °F 100% 30.26 in 10.0 mi East 11.5 mph 18.4 mph 0.00 in   Overcast
7:55 PM 57.0 °F 55.9 °F 96% 30.12 in 10.0 mi ESE 11.5 mph - 0.00 in   Overcast
8:16 PM 57.2 °F 57.2 °F 100% 30.27 in 10.0 mi East 6.9 mph - 0.00 in Rain Light Rain
8:25 PM 57.2 °F 57.2 °F 100% 30.27 in 10.0 mi East 9.2 mph - 0.01 in Rain Light Rain
8:55 PM 57.9 °F 57.0 °F 97% 30.10 in 10.0 mi East 9.2 mph - 0.02 in Rain Light Rain
9:36 PM 57.2 °F 57.2 °F 100% 30.26 in 5.0 mi East 11.5 mph - 0.12 in Rain Rain
9:51 PM 57.2 °F 57.2 °F 100% 30.26 in 5.0 mi East 12.7 mph - 0.21 in Rain Rain
9:55 PM 57.9 °F 57.9 °F 100% 30.08 in 5.0 mi East 13.8 mph - 0.23 in Rain Rain
10:55 PM 59.0 °F 59.0 °F 100% 30.06 in 6.0 mi East 16.1 mph - 0.27 in Rain Light Rain
11:08 PM 59.0 °F 59.0 °F 100% 30.24 in 4.0 mi ESE 20.7 mph - 0.03 in Rain Rain
11:17 PM 60.8 °F 60.8 °F 100% 30.25 in 4.0 mi ESE 18.4 mph - 0.06 in Rain Rain
11:48 PM 60.8 °F 60.8 °F 100% 30.25 in 4.0 mi South 4.6 mph 18.4 mph 0.16 in Rain Rain
11:51 PM 60.8 °F 59.0 °F 94% 30.25 in 2.5 mi South 5.8 mph - 0.18 in Rain Heavy Rain
11:55 PM 60.1 °F 59.0 °F 96% 30.06 in 1.8 mi SW 3.5 mph - 0.24 in Rain Heavy Rain
11:57 PM 60.8 °F 59.0 °F 94% 30.24 in 1.5 mi SSW 4.6 mph - 0.04 in Rain Heavy Rain